CZ-6A DEB, 61376

Orbit data source: Space-Track

CZ-6A DEB, 61376 is space debris in LEO originally from a launch on Tue, 06 Aug 2024 UTC launched from the Taiyaun Space Center, China (TSC). Debris objects in space refer to the collection of defunct objects orbiting the Earth. Examples of debris include non-operational satellites, rocket bodies, and fragments generated from explosions, collisions, or faulty payload assembly.

Loading next visibility...
Identifier
61376, 2024-140WR
Orbit
LEO
Country
Flag of CNCN / PRC
Related business
Manufacturer
SAST
Mission
Spacecraft
Bus & Motor
Unknown
Mass
Unknown
Launch date (UTC)
2024-08-06 (2 years ago)
Launch vehicle
Unknown
Launch site
Taiyaun Space Center, China (TSC)
Object type
Payload
Rocket body
Debris
Shape & HBR
Unknown shape, 0.1 m
Radar Cross Section
Medium (>0.1 m² and <1 m²)

Expand to show TLE details & history
Last TLE update: 16 hours ago

TLE from 16 hours ago
0 CZ-6A DEB
1 61376U 24140WR  26171.29858961  .00000669  00000-0  31057-3 0  9999
2 61376  89.0038 274.7613 0057553 195.9754 163.9622 14.18684935 92715
Epoch: 2026-06-20T07:09Z
TLE epoch observation values (Epoch: 2026-06-20T07:09:58.142Z)
Latitude
-0.00007°
Longitude
-101.24618°
Altitude
872.751 km
Speed
7.395 km/s
True Right ascension
18h 19m 02s
True Declination
0° 00' 00"
Sunlit
Object was in full shadow at epoch
Visualization orbit readout
Latitude
Unknown
Longitude
Unknown
Altitude
Unknown
Speed
Unknown
Apparent Right ascension
Unknown
Apparent Declination
Unknown
Sunlit
N/A
Visualization observer readout
Local Sidereal Time
10:17:11
Azimuth
Unknown
Elevation
Unknown
Doppler factor
Unknown
Orbital elements
Apogee altitude
868.223 km
Perigee altitude
785.29 km
Semi-major axis
7,204.894 km
Eccentricity
0.00576
Inclination
89.0038°
RAAN
274.7613°
Arg. of periapsis
195.9754°
True anomaly
164.14315°
Mean anomaly
163.9622°
Eccentric anomaly
164.0528°
Mean motion
3.54897 °/min
Orbital period
101.44 mins
BSTAR
0.00031057
Loading maneuver chart data...
Computing Atmospheric mass density...
Loading historical data...
Loading historical data...
Loading historical data...
Loading historical data...
Loading historical data...
Loading historical data...
Loading historical data...

Documentation

Showing up to 5 results
|